Вернуться в каталог

NOAA 16 DEB

АктивенSSO
NORAD 42348·DEBRIS·🇺🇸 United States

Запущен Sep 21, 2000 с Vandenberg Space Force Base

Loading…

Ближайшие Пролёты (ближайшие 24 часа)

TLE

СвежийSource: Space-Track

Эпоха: Sep 14, 2026, 05:14 UTC

1 42348U 00055QQ  26257.21870892  .00002080  00000-0  10464-2 0  9997
2 42348  98.8161 248.6460 0058088  29.9827 330.4652 14.16641717541889

Отслеживайте NOAA 16 DEB в реальном времени с AllMySat

Download on the App Store